TELSTAR 19V (43562 NORAD) Tracking and Keplerian Element Data

This shows tracking and keplerian element data for the satellite.

Feedback or suggestion? Click here.




ElementValue
Catalog43562
NameTELSTAR 19V
Epoch Orbit292
Epoch Day109.85956012
Epoch Year2019
RAAN188.6735
Inclination0.0094
Eccentricity9.07E-05
Argument of Perigee262.6505
Mean Anonmoly2.7742
Mean Motion1.00270493
Decay Rate-2.99E-06
L11 43562U 18059A 19109.85956012 -.00000299 00000-0 00000-0 0 9990
L22 43562 0.0094 188.6735 0000907 262.6505 2.7742 1.00270493 2926

Live tracking and technical data element details for TELSTAR 19V (NORAD 43562). TELSTAR 19V can be tracked NOW for your location showing map with azimuth and elevation plus other details from your city location.

Track the satellite on the map from your city or location and see movement details for azimuth, elevation, latitude, longitude, range, height, and movement on the map or in text.







IsCatalogInMostPopularTable: catalog: 43562, numindb: 339
Update: records affected: 1



GetName: 43562 TELSTAR 19V

Hit Count: updated at: Sat, 20 Apr 2019 21:05:07 GMT